• En España
  • Lista de países
  • Para 7 días
  • Temperatura del agua
  • Mapa Satelital
  • El tiempo en el mapa
  • Informadores
  • user-avatar
    Iniciar sesión

    Tiempo cada hora Ashtarak

    Hoy, 16 Octubre, Martes

    Tiempo Temperatura Precipitaciones Viento Presión Humedad
    00:00 +13°C° 0 mm 2 mps 662 mmHg 75%
    01:00 +13°C° 0 mm 2 mps 662 mmHg 75%
    02:00 +13°C° 0 mm 2 mps 662 mmHg 76%
    03:00 +12°C° 0 mm 2 mps 662 mmHg 77%
    04:00 +12°C° 0 mm 2 mps 662 mmHg 77%
    05:00 +10°C° 0 mm 2 mps 662 mmHg 77%
    06:00 +10°C° 0 mm 2 mps 662 mmHg 77%
    07:00 +13°C° 0 mm 1 mps 662 mmHg 68%
    08:00 +15°C° 0 mm 1 mps 663 mmHg 59%
    09:00 +18°C° 0 mm 1 mps 664 mmHg 51%
    10:00 +19°C° 0 mm 1 mps 664 mmHg 47%
    11:00 +20°C° 0 mm 1 mps 664 mmHg 43%
    12:00 +21°C° 0 mm 1 mps 664 mmHg 39%
    13:00 +21°C° 0 mm 1 mps 663 mmHg 39%
    14:00 +22°C° 0 mm 1 mps 663 mmHg 39%
    15:00 +22°C° 0 mm 1 mps 663 mmHg 38%
    16:00 +20°C° 0.1 mm 1 mps 662 mmHg 46%
    17:00 +18°C° 0.1 mm 1 mps 662 mmHg 53%
    18:00 +15°C° 0.1 mm 1 mps 662 mmHg 60%
    19:00 +15°C° 0 mm 1 mps 662 mmHg 63%
    20:00 +14°C° 0 mm 2 mps 662 mmHg 67%
    21:00 +14°C° 0 mm 2 mps 662 mmHg 71%
    22:00 +13°C° 0 mm 2 mps 662 mmHg 73%
    23:00 +13°C° 0 mm 2 mps 662 mmHg 75%

    Mañana, 17 Octubre, Miércoles

    Tiempo Temperatura Precipitaciones Viento Presión Humedad
    00:00 +12°C° 0 mm 2 mps 662 mmHg 76%
    01:00 +12°C° 0 mm 2 mps 662 mmHg 77%
    02:00 +11°C° 0 mm 1 mps 662 mmHg 78%
    03:00 +11°C° 0 mm 1 mps 662 mmHg 79%
    04:00 +11°C° 0 mm 1 mps 662 mmHg 79%
    05:00 +10°C° 0 mm 1 mps 662 mmHg 79%
    06:00 +10°C° 0 mm 1 mps 662 mmHg 79%
    07:00 +12°C° 0 mm 1 mps 662 mmHg 70%
    08:00 +14°C° 0 mm 1 mps 663 mmHg 61%
    09:00 +16°C° 0 mm 1 mps 663 mmHg 53%
    10:00 +18°C° 0 mm 1 mps 663 mmHg 49%
    11:00 +18°C° 0 mm 2 mps 663 mmHg 45%
    12:00 +19°C° 0 mm 2 mps 663 mmHg 41%
    13:00 +19°C° 0 mm 2 mps 663 mmHg 41%
    14:00 +20°C° 0 mm 2 mps 662 mmHg 40%
    15:00 +20°C° 0 mm 2 mps 662 mmHg 40%
    16:00 +19°C° 0 mm 1 mps 662 mmHg 48%
    17:00 +16°C° 0 mm 1 mps 661 mmHg 55%
    18:00 +14°C° 0 mm 1 mps 661 mmHg 62%
    19:00 +14°C° 0 mm 1 mps 661 mmHg 66%
    20:00 +13°C° 0 mm 1 mps 661 mmHg 69%
    21:00 +13°C° 0 mm 1 mps 661 mmHg 73%
    22:00 +12°C° 0 mm 1 mps 661 mmHg 75%
    23:00 +12°C° 0 mm 1 mps 661 mmHg 77%

    Pasado mañana, 18 Octubre, Jueves

    Tiempo Temperatura Precipitaciones Viento Presión Humedad
    00:00 +11°C° 0 mm 1 mps 661 mmHg 79%
    01:00 +11°C° 0 mm 1 mps 661 mmHg 79%
    02:00 +10°C° 0 mm 0 mps 660 mmHg 79%
    03:00 +10°C° 0 mm 0 mps 660 mmHg 79%
    04:00 +9°C° 0 mm 0 mps 660 mmHg 79%
    05:00 +9°C° 0 mm 0 mps 660 mmHg 78%
    06:00 +9°C° 0 mm 0 mps 660 mmHg 77%
    07:00 +12°C° 0 mm 1 mps 660 mmHg 67%
    08:00 +14°C° 0 mm 1 mps 661 mmHg 56%
    09:00 +18°C° 0 mm 1 mps 662 mmHg 46%
    10:00 +19°C° 0 mm 1 mps 662 mmHg 42%
    11:00 +20°C° 0 mm 1 mps 661 mmHg 38%
    12:00 +21°C° 0 mm 2 mps 661 mmHg 34%
    13:00 +21°C° 0 mm 2 mps 661 mmHg 33%
    14:00 +21°C° 0 mm 2 mps 661 mmHg 33%
    15:00 +22°C° 0 mm 1 mps 661 mmHg 32%
    16:00 +20°C° 0 mm 1 mps 660 mmHg 38%
    17:00 +18°C° 0 mm 1 mps 660 mmHg 43%
    18:00 +15°C° 0 mm 1 mps 660 mmHg 49%
    19:00 +15°C° 0 mm 1 mps 660 mmHg 51%
    20:00 +15°C° 0 mm 1 mps 660 mmHg 53%
    21:00 +14°C° 0 mm 1 mps 660 mmHg 55%
    22:00 +14°C° 0 mm 1 mps 660 mmHg 56%
    23:00 +13°C° 0 mm 1 mps 660 mmHg 58%

    19 Octubre, Viernes

    Tiempo Temperatura Precipitaciones Viento Presión Humedad
    00:00 +13°C° 0 mm 1 mps 660 mmHg 59%
    01:00 +13°C° 0 mm 1 mps 660 mmHg 60%
    02:00 +12°C° 0 mm 1 mps 660 mmHg 62%
    03:00 +12°C° 0 mm 1 mps 660 mmHg 63%
    04:00 +12°C° 0 mm 1 mps 660 mmHg 63%
    05:00 +12°C° 0 mm 1 mps 660 mmHg 63%
    06:00 +11°C° 0 mm 1 mps 660 mmHg 63%
    07:00 +14°C° 0 mm 1 mps 661 mmHg 55%
    08:00 +16°C° 0 mm 1 mps 661 mmHg 48%
    09:00 +19°C° 0 mm 1 mps 662 mmHg 40%
    10:00 +20°C° 0 mm 1 mps 662 mmHg 38%
    11:00 +20°C° 0 mm 2 mps 662 mmHg 36%
    12:00 +21°C° 0 mm 2 mps 662 mmHg 34%
    13:00 +21°C° 0 mm 2 mps 661 mmHg 33%
    14:00 +23°C° 0 mm 2 mps 661 mmHg 33%
    15:00 +23°C° 0 mm 2 mps 661 mmHg 32%
    16:00 +21°C° 0 mm 1 mps 660 mmHg 38%
    17:00 +19°C° 0 mm 1 mps 660 mmHg 44%
    18:00 +16°C° 0 mm 1 mps 660 mmHg 50%
    19:00 +16°C° 0.1 mm 1 mps 660 mmHg 52%
    20:00 +15°C° 0.1 mm 1 mps 660 mmHg 54%
    21:00 +15°C° 0.1 mm 1 mps 660 mmHg 57%
    22:00 +14°C° 0 mm 1 mps 660 mmHg 58%
    23:00 +14°C° 0 mm 1 mps 660 mmHg 58%

    20 Octubre, Sábado

    Tiempo Temperatura Precipitaciones Viento Presión Humedad
    00:00 +14°C° 0 mm 1 mps 660 mmHg 59%
    01:00 +13°C° 0.1 mm 1 mps 660 mmHg 59%
    02:00 +13°C° 0.1 mm 1 mps 660 mmHg 58%
    03:00 +13°C° 0.1 mm 1 mps 659 mmHg 57%
    04:00 +13°C° 0 mm 1 mps 659 mmHg 55%
    05:00 +13°C° 0 mm 1 mps 659 mmHg 54%
    06:00 +13°C° 0 mm 1 mps 660 mmHg 52%
    07:00 +14°C° 0.1 mm 1 mps 660 mmHg 49%
    08:00 +16°C° 0.1 mm 2 mps 660 mmHg 46%
    09:00 +18°C° 0.1 mm 2 mps 661 mmHg 42%
    10:00 +19°C° 0.1 mm 2 mps 661 mmHg 41%
    11:00 +20°C° 0.1 mm 2 mps 660 mmHg 39%
    12:00 +21°C° 0.1 mm 3 mps 660 mmHg 38%
    13:00 +21°C° 0.1 mm 3 mps 660 mmHg 38%
    14:00 +21°C° 0.1 mm 3 mps 659 mmHg 37%
    15:00 +21°C° 0.1 mm 2 mps 659 mmHg 37%
    16:00 +20°C° 0.2 mm 2 mps 659 mmHg 42%
    17:00 +18°C° 0.2 mm 2 mps 659 mmHg 46%
    18:00 +16°C° 0.2 mm 1 mps 658 mmHg 51%
    19:00 +16°C° 0.2 mm 1 mps 658 mmHg 52%
    20:00 +15°C° 0.2 mm 1 mps 658 mmHg 52%
    21:00 +15°C° 0.2 mm 1 mps 658 mmHg 52%
    22:00 +15°C° 0.2 mm 1 mps 658 mmHg 53%
    23:00 +14°C° 0.2 mm 1 mps 658 mmHg 54%

    21 Octubre, Domingo

    Tiempo Temperatura Precipitaciones Viento Presión Humedad
    00:00 +14°C° 0.2 mm 1 mps 658 mmHg 54%
    01:00 +14°C° 0.1 mm 1 mps 658 mmHg 55%
    02:00 +14°C° 0.1 mm 1 mps 658 mmHg 55%
    03:00 +13°C° 0.1 mm 1 mps 657 mmHg 56%
    04:00 +13°C° 0.1 mm 1 mps 657 mmHg 57%
    05:00 +13°C° 0.1 mm 1 mps 657 mmHg 59%
    06:00 +13°C° 0.1 mm 1 mps 657 mmHg 60%
    07:00 +14°C° 0.1 mm 2 mps 658 mmHg 58%
    08:00 +15°C° 0.1 mm 2 mps 658 mmHg 55%
    09:00 +17°C° 0.1 mm 2 mps 658 mmHg 53%
    10:00 +18°C° 0.2 mm 2 mps 658 mmHg 50%
    11:00 +18°C° 0.2 mm 2 mps 658 mmHg 48%
    12:00 +19°C° 0.2 mm 3 mps 658 mmHg 46%
    13:00 +19°C° 0.2 mm 3 mps 657 mmHg 45%
    14:00 +19°C° 0.2 mm 3 mps 657 mmHg 45%
    15:00 +20°C° 0.2 mm 3 mps 657 mmHg 45%
    16:00 +18°C° 0.3 mm 2 mps 657 mmHg 49%
    17:00 +17°C° 0.3 mm 2 mps 657 mmHg 54%
    18:00 +16°C° 0.3 mm 2 mps 656 mmHg 59%
    19:00 +15°C° 0.3 mm 2 mps 657 mmHg 60%
    20:00 +15°C° 0.3 mm 1 mps 657 mmHg 61%
    21:00 +15°C° 0.3 mm 1 mps 657 mmHg 63%
    22:00 +14°C° 0.2 mm 1 mps 657 mmHg 64%
    23:00 +14°C° 0.2 mm 1 mps 657 mmHg 65%
    Mostrar más